www.pogodaiklimat.ru

Погода и климат >> Архив погоды >> Непал >> Дхангадхи


ПОГОДА в Дхангадхи

  • Прогноз погоды в Дхангадхи
  • Монитор погоды в Дхангадхи

АРХИВ ПОГОДЫ в Дхангадхи

Время (UTC), дата Ветер
(напр.,м/с)
 
Видим.   Явления Облачность Т
(С)
Тd
(С)
f
(%)
Тe
(С)
Тes
(С)
Комфортность P
(гПа)
Po
(гПа)
Тmin
(С)
Tmax
(С)
R
(мм)
R24
(мм)
S
(см)
03 10.09 штиль 0 6000 м 6/4 600 м
[Cu Sc Ac und]
+29.0 +26.2 85 +44 +48 опасность
перегрева
998.7 979.3 +25.5 20
06 10.09 ЮВ 1 7000 м 6/5 300 м
[Cu med, cong Ci fib]
+32.4 +27.0 73 +50 +60 опасность
перегрева
998.1 978.7
09 10.09 В 1 6000 м 8/6 300 м
[Cu med, cong Ci fib]
+33.8 +27.5 70 +53 +58 опасность
перегрева
996.5 977.2
12 10.09 ЮВ 2 7000 м 5/4 600 м
[Cu med, cong Ci sp]
+32.0 +27.9 79 +52 +53 опасность
перегрева
995.4 976.1 +35.3
00 11.09 штиль 0 6000 м 6/4 600 м
[Sc diur, vesp Ac und]
+27.4 +25.9 92 +41 +41 опасность
перегрева
999.1 979.8
03 11.09 штиль 0 6000 м 5/3 600 м
[Cu med, cong Ac und]
+29.6 +27.0 86 +47 +51 опасность
перегрева
1000.2 981.0 +27.0 0.0
06 11.09 штиль 0 6000 м 5/5 600 м
[Cu med, cong]
+32.8 +27.0 72 +51 +63 опасность
перегрева
999.6 980.4
09 11.09 В 1 5000 м слаб. морось 8/5 300 м
[Cu med, cong Ac und Ci fib]
+31.1 +26.9 78 +48 +53 опасность
перегрева
997.8 978.6
12 11.09 штиль 0 6000 м 1/1 600 м
[Cu med, cong]
+32.8 +28.1 76 +53 +54 опасность
перегрева
997.4 978.2 +34.7 0.0
00 12.09 штиль 0 4000 м слаб. морось 8/8 300 м
[St As op]
+27.2 +25.6 91 +40 +40 очень
душно
1000.6 981.4
03 12.09 В 3 4000 м ливневой дождь, в посл. час гроза {морось} 10/4 200 м
[Cb cap As op]
+26.4 +24.6 90 +37 +38 очень
душно
1003.0 983.7 +26.0 2
06 12.09 В 1 4000 м дымка 10/8 300 м
[St As trans]
+30.6 +26.3 78 +47 +48 опасность
перегрева
1002.7 983.4
09 12.09 ЮВ 1 6000 м 8/3 300 м
[Cu med, cong Cs]
+33.2 +27.5 72 +52 +61 опасность
перегрева
999.5 980.2
12 12.09 штиль 0 6000 м 8/1 300 м
[Cu med, cong Cs]
+30.4 +28.3 89 +51 +52 опасность
перегрева
999.0 979.7 +34.5 2
00 13.09 штиль 0 6000 м 5/5 300 м
[St]
+26.8 +25.7 94 +40 +40 очень
душно
1001.1 981.8
03 13.09 штиль 0 6000 м 10/8 300 м
[St As op]
+29.2 +24.9 78 +42 +42 опасность
перегрева
1002.2 983.0 +26.5 2
06 13.09 штиль 0 6000 м 8/5 300 м
[Cu med, cong Ac trans]
+30.8 +25.4 73 +45 +52 опасность
перегрева
1002.8 983.6
09 13.09 Ю 1 7000 м 5/4 600 м
[Cu med, cong Ci fib]
+33.4 +26.9 69 +51 +59 опасность
перегрева
999.6 980.2
12 13.09 ЮВ 4 6000 м гроза, ливневой дождь 9/4 300 м
[Cb cap As op Ci sp]
+31.8 +27.1 76 +50 +50 опасность
перегрева
999.5 980.2 +34.3 0.0
00 14.09 штиль 0 6000 м 6/4 300 м
[St Ac trans]
+26.0 +25.1 95 +37 +37 очень
душно
1001.5 982.2
03 14.09 штиль 0 6000 м 10/8 300 м
[St As op]
+27.6 +26.1 92 +42 +42 опасность
перегрева
1003.5 984.2 +25.6 2
06 14.09 штиль 0 6000 м 8/1 300 м
[Cu hum Ac und Ci fib]
+30.4 +25.7 76 +45 +58 опасность
перегрева
1003.7 984.4
09 14.09 ЮВ 1 5000 м слаб. морось 10/6 300 м
[St As trans]
+30.2 +26.3 80 +46 +48 опасность
перегрева
1000.1 982.4
12 14.09 штиль 0 4000 м морось 10/8 200 м
[St As op]
+25.4 +25.2 99 +37 +37 очень
душно
1001.9 982.5 +32.2 41
00 15.09 штиль 0 6000 м 10/8 300 м
[St As op]
+25.4 +24.7 96 +36 +36 очень
душно
1002.6 983.2
03 15.09 штиль 0 6000 м 9/6 300 м
[St As op]
+27.4 +25.3 88 +40 +41 очень
душно
1004.2 984.8 +24.5 41
06 15.09 ЮВ 2 6000 м 6/5 300 м
[Cu med, cong Ci fib]
+31.6 +25.9 72 +47 +56 опасность
перегрева
1003.7 984.3
09 15.09 Ю 2 6000 м 5/4 300 м
[Cu med, cong Ac trans]
+32.0 +25.0 67 +46 +53 опасность
перегрева
999.8 1098.0
12 15.09 штиль 0 7000 м 5/3 600 м
[Cu med, cong Ac und Ci sp]
+30.4 +26.6 80 +47 +47 опасность
перегрева
1000.2 980.8 +32.6
03 16.09 штиль 0 5000 м дымка 5/3 600 м
[Cu Sc Ac und]
+28.6 +25.7 84 +42 +47 опасность
перегрева
1002.2 982.8 +25.0 0.0
06 16.09 В 1 5000 м мгла 6/4 600 м
[Cu med, cong Ci fib]
+32.0 +25.7 69 +47 +58 опасность
перегрева
1002.3 982.9
09 16.09 В 2 4000 м дымка 8/5 300 м
[Cu med, cong Ac As]
+32.8 +27.5 74 +52 +56 опасность
перегрева
998.1 978.7
12 16.09 штиль 0 2800 м в посл. час морось 9/5 300 м
[St Ac und Ci sp]
+29.8 +27.0 85 +47 +47 опасность
перегрева
998.6 979.3 +34.0 0.0

 

Местоположение метеостанции Дхангадхи (Непал): широта 28.80 долгота 80.55 высота над уровнем моря 187 м.

В архиве по умолчанию представлена погода в Дхангадхи за последнюю неделю. Архивные данные за месяц целиком и за предыдущие месяцы, начиная с января 2011 года, Вы можете получить, выбрав интересующий диапазон дат из раскрывающегося списка и нажав кнопку "Ввод!".


*Определитесь, кто Вы:
робот инопланетянин человек

Внимание! Время в таблицах - всемирное. Для получения местного времени необходимо прибавить поправку, которая равна 5.5 ч.

Смотрите также архив погоды в соседних городах и на ближайших метеорологических станциях:

Погода в Даделдхуре (Непал) (56 км)
Погода в Дипаял-Силгадхи (Непал) (63 км)
Погода в Суркхете (Непал) (107 км)
Погода в Пантнагаре (Уттаракханд, Индия) (107 км)
Погода в Мектешваре (Уттаракханд, Индия) (115 км)
Погода в Барели (Уттар-Прадеш, Индия) (122 км)
Погода в Непалгандже (Непал) (134 км)
Погода в Орае (Уттар-Прадеш, Индия) (166 км)
Погода в Джумле (Непал) (166 км)
Погода в Бахрайче (Уттар-Прадеш, Индия) (171 км)

Пояснения к столбцам:

Ветер - указаны скорость ветра в м/с - средняя за 10 мин, порывы в срок и между сроками (в фигурных скобках) и направление, откуда дует ветер: С - северный, СВ - северо-восточный, В - восточный, ЮВ - юго-восточный, Ю - южный, ЮЗ - юго-западный, З - западный, СЗ - северо-западный.
Видимость - горизонтальная дальность видимости в метрах или километрах. При видимости от 1 до 10 км при отсутствии осадков обычно наблюдается дымка, при ухудшении видимости до 1 км и менее - туман. В сухую погоду видимость может ухудшаться дымом, пылью или мглою.
Явления - указаны атмосферные явления, наблюдавшиеся в срок или в последний час перед сроком; фигурными скобками обозначены явления, наблюдавшиеся между сроками (за 1-3 часа до срока); квадратными скобками обозначены град или гололедные отложения с указанием их диаметра в мм.
Облачность - указаны через наклонную черту общая и нижняя облачность в баллах и высота нижней границы облаков в метрах; квадратными скобками обозначены формы облаков: Ci - перистые, Cs - перисто-слоистые, Cc - перисто-кучевые, Ac - высококучевые, As - высокослоистые, Sc - слоисто-кучевые, Ns - слоисто-дождевые, Cu - кучевые, Cb - кучево-дождевые. Подробнее классификацию облаков см. в Атласе облаков (PDF).
T - Температура воздуха - температура, измеренная на высоте 2 м над землей.
Td - Температура точки росы - температура, при понижении до которой содержащийся в воздухе водяной пар достигнет насыщения.
f - Относительная влажность воздуха - влажноcть воздуха, измеренная на высоте 2 м над землей.
Te - Эффективная температура - температура, которую ощущает одетый по сезону человек в тени. Характеристика душности погоды. При расчете учитывается влияние влажности воздуха и скорости ветра на теплоощущения человека.
Tes - Эффективная температура на солнце - температура, которую ощущает человек, с поправкой на солнечный нагрев. Характеристика знойности погоды. Зависит от высоты солнца над горизонтом, облачности и скорости ветра. Ночью, в пасмурную погоду, а также при ветре 12 м/с и более поправка равна нулю.
P - Атмосферное давление - приведенное к уровню моря атмосферное давление.
Po - Атмосферное давление - измеренное на уровне метеостанции атмосферное давление.
Tmin - Минимальная температура - минимум температуры воздуха на высоте 2 м над землей.
Tmax - Максимальная температура - максимум температуры воздуха на высоте 2 м над землей.
R - Количество осадков - Количество выпавших осадков за период времени, мм. При наведении курсора мыши на число - период времени, за который выпало указанное количество осадков.
R24 - Количество осадков - Количество выпавших осадков за 24 часа, мм.
S - Снежный покров - Высота снежного покрова, см. При наведении курсора мыши на число - состояние снежного покрова и степень покрытия местности в баллах.